Showing default

HAWK-11A, 62382

Orbit data source: Space-Track

HAWK-11A, 62382 is a payload satellite owned by HawkEye 360 (US) in LEO that was launched on Sat, 21 Dec 2024 UTC via an FALCON 9 launch vehicle from the Air Force Western Test Range (AFWTR). Payloads include a variety of satellites, spacecraft, and rockets equipped with specific instruments for various scientific and technological missions. These include communications satellites like Starlink; space stations such as the ISS; scientific satellites like the Hubble; Earth observation satellites from companies like Planet Labs, Umbra, and HawkEye 360; GPS; miniature CubeSats for education and research; and military/defense satellites.

Loading next visibility...
HAWK-11A details
Identifier
62382, 2024-247F
Orbit
LEO
Last TLE update1 day ago
Origin
Flag of USHawkEye 360 (US)
ManufacturerUTIAS-SFL
MissionOperational Commercial Sigint
Bus & MotorHAWK2G, Unknown motor
Mass31 kg wet, 30 kg dry
Launch date (UTC)
2024-12-21 (2 months ago)
Launch vehicle
FALCON 9
Launch site
Air Force Western Test Range (AFWTR)
Object type
Payload
Rocket body
Debris
Shape & HBRBox + 2 Pan, 1 m
Radar Cross Section0.240 m², Medium (>0.1 m² and < 1m²)

Expand to show TLE details & history

TLE from 1 day ago
0 HAWK-11A
1 62382U 24247F   25035.24148817  .00016279  00000-0  75741-3 0  9992
2 62382  44.9849 119.5499 0002783 268.9836  91.0725 15.19813982  6952
Epoch: 2025-02-04T05:47Z
Definitive object data (Epoch: 2025-02-04T05:47:44.577Z)
Latitude-0.00003°
Longitude-102.03547°
Altitude506.436 km
Speed7.613 km/s
True Right ascension07h 58m 11s
True Declination0° 00' 00"
Sunlit
Object was in full shadow at TLE epoch
Visualization TLE readout
Latitude-13.68691°
Longitude-121.71717°
Altitude508.276 km
Speed7.611 km/s
Apparent Right ascension03h 34m 03s
Apparent Declination-55° 43' 33"
Sunlit
Object is in full shadow
Visualization observer readout
Local Sidereal Time08:59:15
Azimuth218.958° SW
Elevation-27.704°
Doppler factor1
Orbital elements
Apogee altitude509.925 km
Perigee altitude506.092 km
Semi-major axis6,886.146 km
Eccentricity0.0002783
Inclination44.9849°
RAAN119.5499°
Arg. of periapsis268.9836°
True anomaly91.10439°
Mean anomaly91.0725°
Eccentric anomaly91.08844°
Mean motion3.79821 °/min
BSTAR0.00075741
Orbital period94.78 mins
Loading maneuver chart data...
Loading historical data...
Loading historical data...
Loading historical data...
Loading historical data...
Loading historical data...
Loading historical data...
Loading historical data...

HAWK-11A Visibility forecast

Observer location: undefined°, undefined

Span
Click to sort rows by Start time (UTC) header in descending order
Start Az.
Max El. time (UTC)
Max El. Az.
Max El.
End time (UTC)
End Az.
6 mins2025-02-05 08:50:00.296Z229.895° WSW2025-02-05 08:53:00.296Z124.073° SE41.259°2025-02-05 08:56:00.296Z71.781° E
5 mins2025-02-05 10:30:00.296Z286.941° WNW2025-02-05 10:32:00.296Z341.65° N34.817°2025-02-05 10:35:00.296Z58.042° ENE
5 mins2025-02-05 12:10:00.296Z310.77° NW2025-02-05 12:12:00.296Z10.996° NNE33.548°2025-02-05 12:15:00.296Z76.652° E
6 mins2025-02-05 13:49:00.296Z289.769° WNW2025-02-05 13:51:00.296Z266.841° W42.301°2025-02-05 13:55:00.296Z120.691° SE
|